クラーク彗星

71P/Clark (2006)

English version
Home page
Total 6,336 html files since Dec. 4, 1995
Updated on April 21, 2007

---------------------------------------------------------------------

・ プロフィール

・ 写真集

・ 軌道要素

The following orbital elements are taken from MPC 55982:

Epoch 2006 May 25.0 TT = JDT 2453880.5
T 2006 June 6.8079 TT                                   MPC
q   1.562114             (2000.0)            P               Q
n   0.1786149      Peri.  208.7505      -0.0334558      +0.9892636
a   3.122657       Node    59.6578      -0.8825395      +0.0375602
e   0.499749       Incl.    9.4880      -0.4690466      -0.1412332
P   5.52
From 111 observations 2000-2006, mean residual 0".8.  Nongravitational
     parameters A1 = +0.44, A2 = -0.6966.

・ 星図

・ 光度変化

        m1 = 8.0 + 5 logΔ + 21.5 log r(t - 30)

---------------------------------------------------------------------

軌道要素はMPCのEphemerides and Orbital Elementsに掲載されたものです。
星図は StellaNavigator Ver.2.0 for Windows (アストロアーツ 編著 / アスキー出版局刊) で作成したものです。
光度グラフはComet for Windowsで作成したものです。

---------------------------------------------------------------------

Copyright(C) 1995-2008 Seiichi Yoshida (comet@aerith.net). All rights reserved.